This is the latest recevied weather packets stored in our database for station/object NC4J. If no packets are shown the sender has not sent any weather packets the latest 10 day(s).
| Time | Temp. | Humidity | Pressure | Rain* | Wind** | Luminosity | Snow |
|---|---|---|---|---|---|---|---|
| 1778095880 | 20.56° C | 79% | 1014.7 hPa | 0 mm | - | 135 W/m² | - |
| 1778095577 | 20.56° C | 79% | 1014.8 hPa | 0 mm | - | 117 W/m² | - |
| 1778095273 | 20.56° C | 79% | 1014.9 hPa | 0 mm | - | 105 W/m² | - |
| 1778094970 | 20.56° C | 79% | 1014.7 hPa | 0 mm | - | 95 W/m² | - |
| 1778094665 | 20.56° C | 78% | 1014.8 hPa | 0 mm | - | 168 W/m² | - |
| 1778094363 | 20° C | 80% | 1014.9 hPa | 0 mm | - | 197 W/m² | - |
| 1778094060 | 19.44° C | 82% | 1014.9 hPa | 0 mm | - | 145 W/m² | - |
| 1778093757 | 19.44° C | 84% | 1014.9 hPa | 0 mm | - | 144 W/m² | - |
| 1778093453 | 18.89° C | 83% | 1014.9 hPa | 0 mm | - | 120 W/m² | - |
| 1778093151 | 18.89° C | 84% | 1015 hPa | 0 mm | - | 122 W/m² | - |
| 1778092848 | 18.89° C | 83% | 1014.6 hPa | 0 mm | - | 132 W/m² | - |
| 1778092544 | 18.89° C | 85% | 1014.9 hPa | 0 mm | - | 131 W/m² | - |
| 1778092241 | 18.89° C | 83% | 1014.9 hPa | 0 mm | - | 119 W/m² | - |
| 1778091938 | 18.89° C | 82% | 1014.8 hPa | 0 mm | - | 145 W/m² | - |
| 1778091635 | 18.89° C | 85% | 1014.6 hPa | 0 mm | - | 147 W/m² | - |
| 1778091333 | 18.33° C | 85% | 1014.7 hPa | 0 mm | - | 144 W/m² | - |
| 1778091029 | 18.33° C | 86% | 1014.6 hPa | 0 mm | - | 141 W/m² | - |
| 1778090726 | 18.33° C | 85% | 1014.5 hPa | 0 mm | - | 128 W/m² | - |
| 1778090423 | 17.78° C | 85% | 1014.4 hPa | 0 mm | - | 167 W/m² | - |
| 1778090119 | 17.78° C | 85% | 1014.2 hPa | 0 mm | - | 131 W/m² | - |
| 1778089816 | 17.78° C | 85% | 1014.4 hPa | 0 mm | - | 141 W/m² | - |
| 1778089515 | 17.22° C | 88% | 1014.5 hPa | 0 mm | - | 144 W/m² | - |
| 1778089210 | 17.22° C | 89% | 1014.6 hPa | 0 mm | - | 177 W/m² | - |
| 1778088908 | 16.67° C | 90% | 1014.5 hPa | 0 mm | - | 174 W/m² | - |
| 1778088605 | 16.67° C | 89% | 1014.7 hPa | 1.27 mm | - | 150 W/m² | - |
* Rain latest hour (hover to see other rain measurements)
** Current wind speed in m/s (hover to see current wind gust speed)